www.pogodaiklimat.ru

Погода и климат >> Архив погоды >> Россия >> Эвенкия >> Кислокан


АРХИВ ПОГОДЫ в Кислокане

Время (UTC), дата Ветер
(напр.,м/с)
 
Видим.   Явления Облачность Т
(С)
Тd
(С)
f
(%)
Тe
(С)
Тes
(С)
Комфортность P
(гПа)
Po
(гПа)
Тmin
(С)
Tmax
(С)
R
(мм)
R24
(мм)
S
(см)
12 15.08 В 1 50 км 10/9 600 м
[Cb cap Ci sp]
+17.6 +8.5 55 +19 +19 1018.6 994.0 +18.2
15 15.08 СВ 1 н/о 10/8 600 м
[Cb cap Ci sp]
+14.9 +7.7 62 +16 +16 1019.3 994.4
18 15.08 З 1 н/о 10/4 1000 м
[Sc Ci sp]
+12.0 +7.0 71 +12 +12 1020.0 994.9
21 15.08 С 2 н/о 10/8 1000 м
[Sc Ci sp]
+8.7 +7.2 90 +7 +7 1021.0 995.6
00 16.08 С 1 50 км 10/10 1000 м
[Sc]
+8.6 +6.9 89 +8 +8 1022.3 996.9 +5.3
03 16.08 СВ 2 50 км 10/8 1000 м
[Cu Sc Ci sp]
+12.8 +7.5 70 +12 +13 1021.5 996.4
06 16.08 СВ 2 50 км 10/8 1000 м
[Sc Ac trans Ci sp]
+14.4 +8.0 65 +14 +15 1020.5 995.6
09 16.08 В 2 50 км 10/6 1000 м
[Cu Sc Ci sp]
+16.7 +8.3 58 +17 +18 1019.4 994.7
12 16.08 СВ 1 50 км 9/3 1000 м
[Sc Ci sp]
+15.2 +8.7 65 +16 +16 1019.3 994.4 +17.1
15 16.08 З 1 н/о 10/0
[Ci fib]
+5.5 +4.8 95 +4 +4 1019.9 994.2
18 16.08 штиль 0 н/о дымка 10/4 1000 м
[Sc Ci sp]
+3.4 +2.9 97 +2 +2 1020.6 994.6
21 16.08 штиль 0 н/о дымка 10/0
[Ci fib]
+2.4 +1.9 96 +1 +1 1020.9 994.8
00 17.08 С 1 50 км дымка 10/0
[Ci sp]
+7.1 +6.6 97 +6 +8 1020.5 994.9 +1.4
03 17.08 СВ 2 50 км 10/0
[Ci sp]
+15.5 +10.4 72 +15 +21 1019.1 994.3
06 17.08 В 2 50 км 10/0
[Ci fib]
+22.0 +7.9 40 +23 +30 комфорт 1016.8 992.5
09 17.08 СВ 2 50 км 10/1 1000 м
[Sc Ci sp]
+24.1 +4.8 29 +24 +27 комфорт 1015.1 991.1
12 17.08 В 1 50 км 8/0
[Ci sp]
+22.2 +4.3 31 +22 +23 комфорт 1015.4 991.2 +24.1
15 17.08 СВ 1 н/о 8/1 1000 м
[Sc Ci sp]
+6.4 +3.1 79 +5 +5 1017.1 991.5
18 17.08 штиль 0 н/о ясно +1.3 -0.1 90 0 0 1017.7 991.7
21 17.08 штиль 0 н/о 5/0
[Ac trans Ci sp]
-1.4 -2.3 94 -3 -3 1018.6 992.3
00 18.08 СЗ 1 50 км 10/0 2000 м
[Ac trans Ci sp]
+8.5 +4.4 75 +8 +10 1017.7 992.3 -1.6
03 18.08 СВ 3 50 км 9/0
[Ci fib]
+18.5 +2.4 34 +19 +24 1015.9 991.4
06 18.08 СВ 3 50 км 10/0
[Ci sp]
+22.4 +0.2 23 +22 +27 комфорт 1014.2 990.0
09 18.08 В 2 50 км 10/0
[Ci sp]
+23.6 +0.3 21 +22 +25 комфорт 1013.0 988.9
12 18.08 В 1 50 км 10/0
[Ci sp]
+21.6 +3.9 31 +22 +22 комфорт 1013.0 988.8 +24.0
15 18.08 С 1 н/о 10/0
[Ac trans Ci sp]
+8.0 +3.8 75 +7 +7 1014.6 989.2
18 18.08 штиль 0 н/о 10/0
[Ac trans Ci sp]
+3.6 +1.6 87 +3 +3 1015.8 989.5
21 18.08 штиль 0 н/о 10/0
[Ci fib]
+0.5 -0.1 96 -1 -1 1016.3 990.2
00 19.08 ЮЗ 1 50 км 10/0
[Ci fib]
+7.0 +4.2 82 +6 +8 1016.5 991.0 +0.2
03 19.08 Ю 1 50 км 10/0
[Ci sp]
+17.0 +4.3 43 +18 +24 1014.9 990.3
06 19.08 З 2 50 км 10/0
[Ci sp]
+23.6 +2.9 26 +23 +30 комфорт 1012.9 988.9
09 19.08 С 3 50 км 10/0
[Ci sp]
+26.0 +1.6 20 +24 +27 комфорт 1011.3 987.5
12 19.08 СВ 2 50 км 8/0
[Ci sp]
+23.4 -0.5 20 +22 +22 комфорт 1011.7 987.6 +26.0
15 19.08 штиль 0 н/о 3/0
[Ci sp]
+8.5 +0.8 58 +8 +8 1013.4 988.0
18 19.08 штиль 0 н/о 3/0
[Ci sp]
+2.0 -0.8 82 +1 +1 1014.8 988.9
21 19.08 штиль 0 н/о 6/0
[Ci fib]
+0.6 -0.2 94 -1 -1 1015.6 989.5
00 20.08 штиль 0 50 км 10/0 2000 м
[Ac trans Ci sp]
+5.4 +2.2 80 +5 +6 1015.5 989.8 -0.4
03 20.08 СВ 2 50 км 10/5 1000 м
[Sc Ci sp]
+17.0 +3.7 41 +17 +20 1014.6 990.0
06 20.08 В 2 50 км 10/8 1000 м
[Cu Sc Ci sp]
+19.8 +3.9 35 +21 +22 комфорт 1014.8 990.5
09 20.08 В 2 50 км 10/9 600 м
[Cb cap Ci sp]
+19.9 +3.8 35 +21 +21 комфорт 1014.8 990.5
12 20.08 ЮВ 3 4000 м дым 10/8 600 м
[Cb cap Ac trans]
+19.2 +7.0 45 +20 +20 1015.9 991.5 +20.6
15 20.08 В 2 н/о дым 10/10 600 м
[Cb cap]
+14.4 +8.5 68 +14 +14 1017.4 992.5
18 20.08 В 1 н/о дым 10/8 600 м
[Cb cap Ac trans]
+15.3 +8.4 63 +16 +16 1017.7 992.9
21 20.08 С 1 н/о 10/10 600 м
[Cb cap]
+10.4 +7.5 82 +10 +10 1018.6 993.4
00 21.08 штиль 0 50 км {ливн. осадки} 10/10 600 м
[Cb cap]
+13.4 +9.9 79 +13 +13 1018.9 993.9 +9.6 0.0
03 21.08 С 2 50 км в посл. час ливневой дождь 10/10 600 м
[Cb cap]
+16.4 +10.4 68 +17 +17 1018.7 994.0
06 21.08 С 1 50 км в посл. час ливневой дождь 10/10 600 м
[Cb cap]
+16.0 +13.7 86 +17 +17 1018.3 993.6
09 21.08 В 2 50 км {ливн. осадки} 10/8 600 м
[Cb cap Ci sp]
+19.4 +8.7 50 +21 +21 комфорт 1017.0 992.5
12 21.08 штиль 0 50 км {ливн. осадки} 10/8 600 м
[Cb cap Ci sp]
+18.4 +9.1 55 +19 +19 1016.7 992.3 +19.6 3
15 21.08 С 1 н/о 10/10 600 м
[Cb cap]
+13.2 +10.7 85 +13 +13 1017.1 992.3
18 21.08 З 1 н/о 10/5 600 м
[Cb cap Ci sp]
+9.5 +8.9 96 +9 +9 1017.4 992.2
21 21.08 Ю 1 н/о 10/9 1000 м
[Sc Ci sp]
+6.2 +5.8 97 +5 +5 1017.3 991.7
00 22.08 штиль 0 50 км 10/10 1000 м
[Sc]
+9.8 +9.0 95 +9 +9 1016.4 991.2 +5.4
03 22.08 З 2 50 км 10/10 600 м
[Cb cap]
+16.7 +11.8 73 +17 +17 1014.8 990.2
06 22.08 С 4 50 км {ливн. осадки} 9/9 600 м
[Cb cap]
+18.1 +12.0 68 +18 +19 1013.2 988.8
09 22.08 СЗ 1 50 км {ливн. осадки} 10/10 600 м
[Cb cap]
+18.1 +11.3 64 +19 +19 1012.8 988.4

 

Местоположение метеостанции Кислокан (Эвенкия, Россия): широта 63.58 долгота 103.90 высота над уровнем моря 211 м.

В архиве по умолчанию представлена погода в Кислокане за последнюю неделю. Архивные данные за месяц целиком и за предыдущие месяцы, начиная с января 2011 года, Вы можете получить, выбрав интересующий диапазон дат из раскрывающегося списка и нажав кнопку "Ввод!".


*Определитесь, кто Вы:
робот инопланетянин человек

Внимание! Время в таблицах - всемирное. Для получения местного времени необходимо прибавить поправку, которая равна 7 ч.

Смотрите также архив погоды в соседних городах и на ближайших метеорологических станциях:

Погода в Кербо (Эвенкия, Россия) (170 км)
Погода в Туре (Эвенкия, Россия) (190 км)
Погода в Стрелке-Чуне (Эвенкия, Россия) (211 км)
Погода в Тембенчи (Эвенкия, Россия) (285 км)
Погода в Муторае (Эвенкия, Россия) (308 км)
Погода в Ербогачене (Иркутская область, Россия) (332 км)
Погода в Ванаваре (Эвенкия, Россия) (371 км)
Погода в Туой-Хае (Якутия, Россия) (386 км)
Погода в Чернышевском (Якутия, Россия) (429 км)
Погода в Хабардино (Якутия, Россия) (433 км)

Пояснения к столбцам:

Ветер - указаны скорость ветра в м/с - средняя за 10 мин, порывы в срок и между сроками (в фигурных скобках) и направление, откуда дует ветер: С - северный, СВ - северо-восточный, В - восточный, ЮВ - юго-восточный, Ю - южный, ЮЗ - юго-западный, З - западный, СЗ - северо-западный.
Видимость - горизонтальная дальность видимости в метрах или километрах. При видимости от 1 до 10 км при отсутствии осадков обычно наблюдается дымка, при ухудшении видимости до 1 км и менее - туман. В сухую погоду видимость может ухудшаться дымом, пылью или мглою.
Явления - указаны атмосферные явления, наблюдавшиеся в срок или в последний час перед сроком; фигурными скобками обозначены явления, наблюдавшиеся между сроками (за 1-3 часа до срока); квадратными скобками обозначены град или гололедные отложения с указанием их диаметра в мм.
Облачность - указаны через наклонную черту общая и нижняя облачность в баллах и высота нижней границы облаков в метрах; квадратными скобками обозначены формы облаков: Ci - перистые, Cs - перисто-слоистые, Cc - перисто-кучевые, Ac - высококучевые, As - высокослоистые, Sc - слоисто-кучевые, Ns - слоисто-дождевые, Cu - кучевые, Cb - кучево-дождевые. Подробнее классификацию облаков см. в Атласе облаков (PDF).
T - Температура воздуха - температура, измеренная на высоте 2 м над землей.
Td - Температура точки росы - температура, при понижении до которой содержащийся в воздухе водяной пар достигнет насыщения.
f - Относительная влажность воздуха - влажноcть воздуха, измеренная на высоте 2 м над землей.
Te - Эффективная температура - температура, которую ощущает одетый по сезону человек в тени. Характеристика душности погоды. При расчете учитывается влияние влажности воздуха и скорости ветра на теплоощущения человека.
Tes - Эффективная температура на солнце - температура, которую ощущает человек, с поправкой на солнечный нагрев. Характеристика знойности погоды. Зависит от высоты солнца над горизонтом, облачности и скорости ветра. Ночью, в пасмурную погоду, а также при ветре 12 м/с и более поправка равна нулю.
P - Атмосферное давление - приведенное к уровню моря атмосферное давление.
Po - Атмосферное давление - измеренное на уровне метеостанции атмосферное давление.
Tmin - Минимальная температура - минимум температуры воздуха на высоте 2 м над землей.
Tmax - Максимальная температура - максимум температуры воздуха на высоте 2 м над землей.
R - Количество осадков - Количество выпавших осадков за период времени, мм. При наведении курсора мыши на число - период времени, за который выпало указанное количество осадков.
R24 - Количество осадков - Количество выпавших осадков за 24 часа, мм.
S - Снежный покров - Высота снежного покрова, см. При наведении курсора мыши на число - состояние снежного покрова и степень покрытия местности в баллах.